Location: Goettingen
(51.5300°N, 9.9433°E)
Time: 10:00:01
(UTC+02:00)

ISS - Pass Details

Date: 10 May 2025
Orbit: 416 x 419 km, 51.6° (Epoch: 18 May)

Event Time Altitude Azimuth Distance (km) Brightness Sun altitude
Exits shadow 03:05:50 47° 185° (S) 565 -3.6 -16.8°
Drops below altitude 10° 03:08:48 10° 128° (SE) 1,491 -1.1 -16.6°
Sets 03:10:55 0° 122° (ESE) 2,352 0.0 -16.5°
